| time (UTC) | temp F | wind direction | speed knots | gust knots | rain 1hr in | rain 24hr in | rain mn in | humidity % | barometer mb |
| 20260506014940 | 69 | 78 | 1.7 | 2.6 | 0.00 | 0.00 | 0.00 | 66 | 1008.4 |
| 20260506014437 | 70 | 149 | 1.7 | 4.3 | 0.00 | 0.00 | 0.00 | 66 | 1008.3 |
| 20260506013933 | 70 | 166 | 1.7 | 3.5 | 0.00 | 0.00 | 0.00 | 65 | 1008.1 |
| 20260506013432 | 70 | 131 | 1.7 | 4.3 | 0.00 | 0.00 | 0.00 | 65 | 1008.4 |
| 20260506012927 | 71 | 149 | 0.9 | 4.3 | 0.00 | 0.00 | 0.00 | 65 | 1008.2 |
| 20260506012424 | 71 | 145 | 1.7 | 3.5 | 0.00 | 0.00 | 0.00 | 65 | 1007.6 |
| 20260506011921 | 71 | 120 | 1.7 | 3.5 | 0.00 | 0.00 | 0.00 | 65 | 1008.0 |
| 20260506011418 | 72 | 157 | 1.7 | 1.7 | 0.00 | 0.00 | 0.00 | 65 | 1008.1 |
| 20260506010915 | 72 | 156 | 1.7 | 4.3 | 0.00 | 0.00 | 0.00 | 64 | 1007.7 |
| 20260506010414 | 72 | 138 | 0.9 | 3.5 | 0.00 | 0.00 | 0.00 | 64 | 1007.2 |
| 20260506005909 | 73 | 161 | 1.7 | 3.5 | 0.00 | 0.00 | 0.00 | 63 | 1007.4 |
| 20260506005408 | 73 | 269 | 0.0 | 1.7 | 0.00 | 0.00 | 0.00 | 64 | 1007.2 |
| 20260506004903 | 73 | 160 | 1.7 | 3.5 | 0.00 | 0.00 | 0.00 | 64 | 1007.2 |
| 20260506004401 | 73 | 139 | 1.7 | 2.6 | 0.00 | 0.00 | 0.00 | 63 | 1007.4 |
| 20260506003857 | 73 | 157 | 1.7 | 2.6 | 0.00 | 0.00 | 0.00 | 63 | 1007.1 |
| 20260506003353 | 74 | 93 | 0.0 | 3.5 | 0.00 | 0.00 | 0.00 | 63 | 1006.6 |
| 20260506002850 | 74 | 140 | 2.6 | 3.5 | 0.00 | 0.00 | 0.00 | 63 | 1006.3 |
| 20260506002346 | 75 | 306 | 0.0 | 2.6 | 0.00 | 0.00 | 0.00 | 62 | 1006.7 |
| 20260506001842 | 75 | 163 | 1.7 | 4.3 | 0.00 | 0.00 | 0.00 | 62 | 1006.9 |
| 20260506001339 | 76 | 111 | 1.7 | 3.5 | 0.00 | 0.00 | 0.00 | 61 | 1006.6 |
| 20260506000836 | 76 | 326 | 1.7 | 1.7 | 0.00 | 0.00 | 0.00 | 61 | 1006.6 |
| 20260506000334 | 77 | 148 | 0.0 | 2.6 | 0.00 | 0.00 | 0.00 | 60 | 1006.5 |
| 20260505235830 | 77 | 300 | 0.0 | 2.6 | 0.00 | 0.00 | 0.00 | 59 | 1006.5 |
| 20260505235328 | 78 | 154 | 1.7 | 2.6 | 0.00 | 0.00 | 0.00 | 59 | 1006.6 |
| 20260505234824 | 78 | 74 | 1.7 | 3.5 | 0.00 | 0.00 | 0.00 | 59 | 1006.3 |
| 20260505234322 | 78 | 147 | 0.9 | 1.7 | 0.00 | 0.00 | 0.00 | 59 | 1006.5 |
| 20260505233819 | 79 | 149 | 1.7 | 4.3 | 0.00 | 0.00 | 0.00 | 58 | 1006.3 |
| 20260505233317 | 79 | 252 | 0.0 | 3.5 | 0.00 | 0.00 | 0.00 | 56 | 1006.2 |
| 20260505232814 | 80 | 222 | 0.0 | 3.5 | 0.00 | 0.00 | 0.00 | 56 | 1006.1 |
| 20260505232311 | 80 | 329 | 0.9 | 2.6 | 0.00 | 0.00 | 0.00 | 55 | 1006.1 |
| 20260505231808 | 80 | 53 | 0.0 | 4.3 | 0.00 | 0.00 | 0.00 | 55 | 1006.4 |
| 20260505231306 | 81 | 190 | 0.0 | 4.3 | 0.00 | 0.00 | 0.00 | 56 | 1006.3 |
| 20260505230804 | 81 | 240 | 0.9 | 2.6 | 0.00 | 0.00 | 0.00 | 54 | 1005.8 |
| 20260505230301 | 82 | 329 | 2.6 | 4.3 | 0.00 | 0.00 | 0.00 | 53 | 1006.1 |
| 20260505225757 | 83 | 145 | 0.9 | 2.6 | 0.00 | 0.00 | 0.00 | 53 | 1006.1 |
| 20260505225255 | 83 | 159 | 0.0 | 1.7 | 0.00 | 0.00 | 0.00 | 52 | 1005.9 |
| 20260505224749 | 84 | 34 | 2.6 | 4.3 | 0.00 | 0.00 | 0.00 | 50 | 1005.6 |
| 20260505224247 | 85 | 126 | 0.0 | 3.5 | 0.00 | 0.00 | 0.00 | 51 | 1005.5 |
| 20260505223745 | 85 | 159 | 0.0 | 2.6 | 0.00 | 0.00 | 0.00 | 51 | 1005.5 |
| 20260505223241 | 85 | 195 | 1.7 | 1.7 | 0.00 | 0.00 | 0.00 | 51 | 1005.6 |
| 20260505222737 | 86 | 263 | 0.0 | 3.5 | 0.00 | 0.00 | 0.00 | 50 | 1005.4 |
| 20260505222233 | 86 | 215 | 0.9 | 1.7 | 0.00 | 0.00 | 0.00 | 50 | 1005.3 |
| 20260505221731 | 87 | 57 | 0.0 | 1.7 | 0.00 | 0.00 | 0.00 | 49 | 1005.3 |
| 20260505221227 | 87 | 166 | 1.7 | 1.7 | 0.00 | 0.00 | 0.00 | 48 | 1005.0 |
| 20260505220724 | 88 | 281 | 1.7 | 3.5 | 0.00 | 0.00 | 0.00 | 46 | 1005.0 |
| 20260505220222 | 88 | 205 | 0.0 | 2.6 | 0.00 | 0.00 | 0.00 | 45 | 1005.0 |
| 20260505215720 | 88 | 272 | 0.9 | 2.6 | 0.00 | 0.00 | 0.00 | 42 | 1005.0 |
| 20260505215217 | 89 | 200 | 1.7 | 1.7 | 0.00 | 0.00 | 0.00 | 41 | 1004.7 |
| 20260505214715 | 90 | 241 | 1.7 | 2.6 | 0.00 | 0.00 | 0.00 | 40 | 1005.1 |
| 20260505214212 | 90 | 295 | 0.9 | 2.6 | 0.00 | 0.00 | 0.00 | 40 | 1005.2 |
| 20260505213709 | 91 | 172 | 1.7 | 1.7 | 0.00 | 0.00 | 0.00 | 40 | 1005.2 |
| 20260505213206 | 92 | 204 | 0.0 | 2.6 | 0.00 | 0.00 | 0.00 | 38 | 1005.2 |
| 20260505212702 | 91 | 155 | 0.0 | 2.6 | 0.00 | 0.00 | 0.00 | 41 | 1005.0 |
| 20260505212200 | 91 | 257 | 2.6 | 2.6 | 0.00 | 0.00 | 0.00 | 41 | 1005.0 |
| 20260505211656 | 92 | 263 | 1.7 | 3.5 | 0.00 | 0.00 | 0.00 | 39 | 1005.0 |
| 20260505211154 | 92 | 318 | 1.7 | 3.5 | 0.00 | 0.00 | 0.00 | 40 | 1005.0 |
| 20260505210650 | 95 | 353 | 1.7 | 3.5 | 0.00 | 0.00 | 0.00 | 38 | 1005.2 |
| 20260505210147 | 94 | 275 | 0.0 | 2.6 | 0.00 | 0.00 | 0.00 | 42 | 1005.0 |
| 20260505205644 | 94 | 44 | 0.0 | 2.6 | 0.00 | 0.00 | 0.00 | 42 | 1004.9 |
| 20260505205143 | 95 | 273 | 1.7 | 2.6 | 0.00 | 0.00 | 0.00 | 41 | 1005.1 |
| 20260505204639 | 96 | 334 | 0.9 | 2.6 | 0.00 | 0.00 | 0.00 | 42 | 1005.2 |
| 20260505204137 | 95 | 117 | 1.7 | 4.3 | 0.00 | 0.00 | 0.00 | 40 | 1005.3 |
| 20260505203634 | 95 | 278 | 0.9 | 3.5 | 0.00 | 0.00 | 0.00 | 42 | 1005.3 |
| 20260505203131 | 94 | 349 | 2.6 | 3.5 | 0.00 | 0.00 | 0.00 | 42 | 1005.2 |
| 20260505202626 | 94 | 273 | 2.6 | 2.6 | 0.00 | 0.00 | 0.00 | 43 | 1005.3 |
| 20260505202122 | 94 | 330 | 1.7 | 3.5 | 0.00 | 0.00 | 0.00 | 42 | 1005.3 |
| 20260505201619 | 94 | 91 | 1.7 | 4.3 | 0.00 | 0.00 | 0.00 | 41 | 1005.2 |
| 20260505201117 | 94 | 25 | 2.6 | 4.3 | 0.00 | 0.00 | 0.00 | 44 | 1005.5 |
| 20260505200615 | 94 | 269 | 0.9 | 4.3 | 0.00 | 0.00 | 0.00 | 45 | 1005.5 |
| 20260505200111 | 94 | 0 | 1.7 | 2.6 | 0.00 | 0.00 | 0.00 | 45 | 1005.5 |
| 20260505195608 | 93 | 317 | 1.7 | 3.5 | 0.00 | 0.00 | 0.00 | 47 | 1005.6 |
| 20260505195105 | 94 | 350 | 1.7 | 5.2 | 0.00 | 0.00 | 0.00 | 46 | 1005.6 |
| 20260505194602 | 93 | 307 | 0.9 | 3.5 | 0.00 | 0.00 | 0.00 | 49 | 1005.6 |
| 20260505194058 | 92 | 321 | 0.0 | 3.5 | 0.00 | 0.00 | 0.00 | 49 | 1005.8 |
| 20260505193555 | 91 | 7 | 2.6 | 4.3 | 0.00 | 0.00 | 0.00 | 47 | 1005.6 |
| 20260505193052 | 91 | 346 | 1.7 | 4.3 | 0.00 | 0.00 | 0.00 | 48 | 1005.9 |
| 20260505192551 | 92 | 10 | 1.7 | 3.5 | 0.00 | 0.00 | 0.00 | 48 | 1005.8 |
| 20260505192048 | 91 | 327 | 0.9 | 5.2 | 0.00 | 0.00 | 0.00 | 50 | 1005.9 |
| 20260505191546 | 91 | 338 | 2.6 | 4.3 | 0.00 | 0.00 | 0.00 | 50 | 1005.4 |
| 20260505191043 | 91 | 338 | 1.7 | 2.6 | 0.00 | 0.00 | 0.00 | 52 | 1005.6 |
| 20260505190538 | 90 | 22 | 0.9 | 5.2 | 0.00 | 0.00 | 0.00 | 52 | 1005.6 |
| 20260505190034 | 89 | 8 | 2.6 | 3.5 | 0.00 | 0.00 | 0.00 | 52 | 1005.6 |
| 20260505185531 | 88 | 326 | 1.7 | 1.7 | 0.00 | 0.00 | 0.00 | 56 | 1005.6 |
| 20260505185027 | 88 | 325 | 0.9 | 3.5 | 0.00 | 0.00 | 0.00 | 54 | 1005.4 |
| 20260505184524 | 88 | 355 | 2.6 | 3.5 | 0.00 | 0.00 | 0.00 | 55 | 1005.5 |
| 20260505184021 | 87 | 28 | 2.6 | 3.5 | 0.00 | 0.00 | 0.00 | 56 | 1005.4 |
| 20260505183518 | 86 | 25 | 1.7 | 1.7 | 0.00 | 0.00 | 0.00 | 58 | 1005.8 |
| 20260505183015 | 86 | 22 | 2.6 | 3.5 | 0.00 | 0.00 | 0.00 | 57 | 1005.4 |
| 20260505182512 | 86 | 10 | 2.6 | 2.6 | 0.00 | 0.00 | 0.00 | 56 | 1006.1 |
| 20260505182008 | 86 | 5 | 2.6 | 5.2 | 0.00 | 0.00 | 0.00 | 57 | 1005.9 |
| 20260505181505 | 86 | 324 | 1.7 | 3.5 | 0.00 | 0.00 | 0.00 | 57 | 1005.9 |
| 20260505181002 | 86 | 341 | 1.7 | 3.5 | 0.00 | 0.00 | 0.00 | 59 | 1005.5 |
| 20260505180458 | 86 | 354 | 1.7 | 3.5 | 0.00 | 0.00 | 0.00 | 59 | 1006.0 |
| 20260505175955 | 86 | 353 | 1.7 | 4.3 | 0.00 | 0.00 | 0.00 | 58 | 1006.0 |
| 20260505175451 | 87 | 350 | 0.9 | 3.5 | 0.00 | 0.00 | 0.00 | 59 | 1006.0 |
| 20260505174948 | 86 | 355 | 1.7 | 4.3 | 0.00 | 0.00 | 0.00 | 57 | 1006.0 |
| 20260505174445 | 86 | 64 | 1.7 | 5.2 | 0.00 | 0.00 | 0.00 | 58 | 1005.9 |
| 20260505173941 | 86 | 1 | 0.9 | 3.5 | 0.00 | 0.00 | 0.00 | 59 | 1005.9 |
| 20260505173438 | 86 | 351 | 1.7 | 3.5 | 0.00 | 0.00 | 0.00 | 60 | 1005.8 |
| 20260505172935 | 86 | 3 | 0.9 | 3.5 | 0.00 | 0.00 | 0.00 | 61 | 1006.0 |
| 20260505172433 | 85 | 41 | 4.3 | 4.3 | 0.00 | 0.00 | 0.00 | 61 | 1005.8 |
| 20260505171932 | 84 | 119 | 0.0 | 2.6 | 0.00 | 0.00 | 0.00 | 63 | 1005.8 |
| 20260505171430 | 84 | 349 | 1.7 | 3.5 | 0.00 | 0.00 | 0.00 | 62 | 1006.0 |
| 20260505170926 | 84 | 347 | 1.7 | 2.6 | 0.00 | 0.00 | 0.00 | 62 | 1005.9 |
| 20260505170423 | 84 | 42 | 0.9 | 3.5 | 0.00 | 0.00 | 0.00 | 63 | 1005.9 |
| 20260505165918 | 84 | 16 | 0.0 | 2.6 | 0.00 | 0.00 | 0.00 | 62 | 1005.9 |
| 20260505165414 | 83 | 353 | 1.7 | 3.5 | 0.00 | 0.00 | 0.00 | 63 | 1006.0 |
| 20260505164909 | 83 | 343 | 1.7 | 3.5 | 0.00 | 0.00 | 0.00 | 64 | 1006.1 |
| 20260505164407 | 82 | 153 | 0.9 | 3.5 | 0.00 | 0.00 | 0.00 | 65 | 1006.1 |
| 20260505163905 | 81 | 357 | 1.7 | 3.5 | 0.00 | 0.00 | 0.00 | 66 | 1005.9 |
| 20260505163404 | 81 | 10 | 3.5 | 3.5 | 0.00 | 0.00 | 0.00 | 66 | 1006.0 |
| 20260505162902 | 81 | 49 | 0.0 | 4.3 | 0.00 | 0.00 | 0.00 | 66 | 1005.8 |
| 20260505162357 | 81 | 10 | 1.7 | 4.3 | 0.00 | 0.00 | 0.00 | 66 | 1005.6 |
| 20260505161854 | 81 | 354 | 1.7 | 3.5 | 0.00 | 0.00 | 0.00 | 67 | 1005.9 |
| 20260505161351 | 81 | 16 | 1.7 | 3.5 | 0.00 | 0.00 | 0.00 | 67 | 1005.9 |
| 20260505160849 | 80 | 119 | 1.7 | 3.5 | 0.00 | 0.00 | 0.00 | 68 | 1005.8 |
| 20260505160347 | 80 | 349 | 1.7 | 3.5 | 0.00 | 0.00 | 0.00 | 68 | 1005.8 |
| 20260505153326 | 78 | 44 | 0.9 | 2.6 | 0.00 | 0.00 | 0.00 | 72 | 1005.8 |
| 20260505152823 | 78 | 127 | 1.7 | 2.6 | 0.00 | 0.00 | 0.00 | 72 | 1005.6 |
| 20260505152320 | 77 | 338 | 1.7 | 3.5 | 0.00 | 0.00 | 0.00 | 71 | 1005.4 |
| 20260505151820 | 77 | 339 | 1.7 | 3.5 | 0.00 | 0.00 | 0.00 | 72 | 1005.5 |
| 20260505151317 | 77 | 92 | 1.7 | 2.6 | 0.00 | 0.00 | 0.00 | 73 | 1005.4 |
| 20260505150813 | 77 | 327 | 1.7 | 5.2 | 0.00 | 0.00 | 0.00 | 72 | 1005.4 |
| 20260505150310 | 77 | 338 | 0.9 | 2.6 | 0.00 | 0.00 | 0.00 | 73 | 1005.5 |
| 20260505140235 | 74 | 29 | 3.5 | 3.5 | 0.00 | 0.00 | 0.00 | 78 | 1005.2 |
| 20260505130159 | 72 | 17 | 1.7 | 3.5 | 0.00 | 0.00 | 0.00 | 82 | 1005.0 |
| 20260505124648 | 71 | 55 | 2.6 | 3.5 | 0.00 | 0.00 | 0.00 | 83 | 1005.5 |
| 20260505124145 | 71 | 72 | 0.0 | 3.5 | 0.00 | 0.00 | 0.00 | 84 | 1005.1 |
| 20260505123641 | 71 | 116 | 1.7 | 3.5 | 0.00 | 0.00 | 0.00 | 84 | 1004.9 |
| 20260505123138 | 71 | 12 | 0.0 | 3.5 | 0.00 | 0.00 | 0.00 | 84 | 1004.9 |
| 20260505122634 | 71 | 55 | 0.9 | 2.6 | 0.00 | 0.00 | 0.00 | 84 | 1004.9 |
| 20260505122132 | 71 | 92 | 0.9 | 1.7 | 0.00 | 0.00 | 0.00 | 85 | 1004.9 |
| 20260505121628 | 71 | 115 | 1.7 | 3.5 | 0.00 | 0.00 | 0.00 | 85 | 1004.8 |
| 20260505121125 | 71 | 110 | 0.9 | 1.7 | 0.00 | 0.00 | 0.00 | 85 | 1004.8 |
| 20260505120621 | 70 | 122 | 0.9 | 2.6 | 0.00 | 0.00 | 0.00 | 85 | 1004.7 |
| 20260505120117 | 70 | 50 | 0.0 | 1.7 | 0.00 | 0.00 | 0.00 | 85 | 1004.6 |
| 20260505115612 | 70 | 100 | 1.7 | 4.3 | 0.00 | 0.00 | 0.00 | 85 | 1004.4 |
| 20260505115109 | 70 | 44 | 0.0 | 3.5 | 0.00 | 0.00 | 0.00 | 85 | 1004.7 |
| 20260505114606 | 70 | 16 | 1.7 | 1.7 | 0.00 | 0.00 | 0.00 | 85 | 1004.6 |
| 20260505114103 | 70 | 123 | 0.9 | 3.5 | 0.00 | 0.00 | 0.00 | 85 | 1004.6 |
| 20260505113559 | 70 | 60 | 1.7 | 3.5 | 0.00 | 0.00 | 0.00 | 85 | 1004.4 |
| 20260505113056 | 70 | 43 | 2.6 | 4.3 | 0.00 | 0.00 | 0.00 | 85 | 1004.4 |
| 20260505112553 | 70 | 31 | 1.7 | 4.3 | 0.00 | 0.00 | 0.00 | 85 | 1004.2 |
| 20260505112051 | 70 | 147 | 1.7 | 3.5 | 0.00 | 0.00 | 0.00 | 85 | 1004.3 |
| 20260505111550 | 70 | 38 | 0.9 | 4.3 | 0.00 | 0.00 | 0.00 | 85 | 1004.3 |
| 20260505111046 | 70 | 20 | 1.7 | 4.3 | 0.00 | 0.00 | 0.00 | 85 | 1004.4 |
| 20260505110543 | 70 | 155 | 0.0 | 3.5 | 0.00 | 0.00 | 0.00 | 84 | 1004.3 |
| 20260505102015 | 71 | 22 | 0.9 | 4.3 | 0.00 | 0.00 | 0.00 | 83 | 1004.2 |
| 20260505101514 | 71 | 15 | 0.0 | 3.5 | 0.00 | 0.00 | 0.00 | 83 | 1004.3 |
| 20260505101010 | 71 | 12 | 1.7 | 2.6 | 0.00 | 0.00 | 0.00 | 83 | 1004.2 |
| 20260505100507 | 71 | 91 | 1.7 | 3.5 | 0.00 | 0.00 | 0.00 | 83 | 1004.3 |
| 20260505100003 | 71 | 61 | 3.5 | 5.2 | 0.00 | 0.00 | 0.00 | 83 | 1004.3 |
| 20260505095459 | 71 | 58 | 0.9 | 2.6 | 0.00 | 0.00 | 0.00 | 83 | 1004.2 |
| 20260505094955 | 71 | 65 | 1.7 | 3.5 | 0.00 | 0.00 | 0.00 | 82 | 1004.3 |
| 20260505094453 | 71 | 140 | 1.7 | 5.2 | 0.00 | 0.00 | 0.00 | 82 | 1004.4 |
| 20260505093949 | 71 | 40 | 1.7 | 3.5 | 0.00 | 0.00 | 0.00 | 82 | 1004.2 |
| 20260505093446 | 71 | 8 | 4.3 | 5.2 | 0.00 | 0.00 | 0.00 | 81 | 1004.3 |
| 20260505092943 | 72 | 0 | 0.0 | 2.6 | 0.00 | 0.00 | 0.00 | 81 | 1004.4 |
| 20260505092440 | 72 | 10 | 1.7 | 4.3 | 0.00 | 0.00 | 0.00 | 81 | 1004.4 |
| 20260505091938 | 72 | 95 | 2.6 | 3.5 | 0.00 | 0.00 | 0.00 | 81 | 1004.6 |
| 20260505091435 | 72 | 107 | 1.7 | 6.1 | 0.00 | 0.00 | 0.00 | 80 | 1004.4 |
| 20260505090933 | 72 | 33 | 1.7 | 3.5 | 0.00 | 0.00 | 0.00 | 80 | 1004.4 |
| 20260505090431 | 72 | 39 | 1.7 | 4.3 | 0.00 | 0.00 | 0.00 | 80 | 1004.6 |
| 20260505085928 | 72 | 20 | 1.7 | 5.2 | 0.00 | 0.00 | 0.00 | 79 | 1004.8 |
| 20260505085426 | 72 | 29 | 1.7 | 5.2 | 0.00 | 0.00 | 0.00 | 79 | 1004.9 |
| 20260505084924 | 73 | 351 | 3.5 | 4.3 | 0.00 | 0.00 | 0.00 | 79 | 1004.8 |
| 20260505084422 | 73 | 136 | 1.7 | 5.2 | 0.00 | 0.00 | 0.00 | 78 | 1004.8 |
| 20260505083920 | 73 | 351 | 1.7 | 4.3 | 0.00 | 0.00 | 0.00 | 78 | 1004.7 |
| 20260505083417 | 73 | 11 | 1.7 | 4.3 | 0.00 | 0.00 | 0.00 | 78 | 1005.1 |
| 20260505082913 | 73 | 29 | 1.7 | 3.5 | 0.00 | 0.00 | 0.00 | 77 | 1004.9 |
| 20260505082409 | 73 | 12 | 4.3 | 4.3 | 0.00 | 0.00 | 0.00 | 77 | 1005.0 |
| 20260505081906 | 73 | 81 | 1.7 | 4.3 | 0.00 | 0.00 | 0.00 | 76 | 1004.9 |
| 20260505081403 | 73 | 120 | 1.7 | 3.5 | 0.00 | 0.00 | 0.00 | 76 | 1004.6 |
| 20260505080859 | 73 | 37 | 1.7 | 4.3 | 0.00 | 0.00 | 0.00 | 76 | 1004.8 |
| 20260505080355 | 73 | 104 | 2.6 | 5.2 | 0.00 | 0.00 | 0.00 | 75 | 1004.9 |
| 20260505075851 | 73 | 153 | 0.9 | 3.5 | 0.00 | 0.00 | 0.00 | 75 | 1004.8 |
| 20260505075348 | 73 | 152 | 0.0 | 2.6 | 0.00 | 0.00 | 0.00 | 75 | 1004.8 |
| 20260505074845 | 74 | 17 | 0.0 | 3.5 | 0.00 | 0.00 | 0.00 | 74 | 1004.8 |
| 20260505074342 | 74 | 82 | 0.9 | 3.5 | 0.00 | 0.00 | 0.00 | 74 | 1004.7 |
| 20260505073840 | 74 | 35 | 1.7 | 3.5 | 0.00 | 0.00 | 0.00 | 73 | 1005.0 |
| 20260505073337 | 74 | 0 | 0.9 | 5.2 | 0.00 | 0.00 | 0.00 | 73 | 1005.2 |
| 20260505072834 | 74 | 78 | 1.7 | 4.3 | 0.00 | 0.00 | 0.00 | 72 | 1005.1 |
| 20260505072330 | 74 | 112 | 0.9 | 2.6 | 0.00 | 0.00 | 0.00 | 72 | 1005.3 |
| 20260505071826 | 74 | 347 | 2.6 | 6.1 | 0.00 | 0.00 | 0.00 | 72 | 1005.3 |
| 20260505071323 | 74 | 42 | 1.7 | 3.5 | 0.00 | 0.00 | 0.00 | 72 | 1005.5 |
| 20260505070821 | 74 | 92 | 2.6 | 4.3 | 0.00 | 0.00 | 0.00 | 71 | 1005.8 |
| 20260505070318 | 74 | 358 | 2.6 | 4.3 | 0.00 | 0.00 | 0.00 | 71 | 1005.8 |
| 20260505065812 | 75 | 20 | 0.0 | 5.2 | 0.00 | 0.00 | 0.00 | 70 | 1005.8 |
| 20260505065309 | 75 | 6 | 1.7 | 2.6 | 0.00 | 0.00 | 0.00 | 70 | 1005.8 |
| 20260505064807 | 75 | 51 | 1.7 | 3.5 | 0.00 | 0.00 | 0.00 | 70 | 1005.9 |
| 20260505064304 | 75 | 61 | 1.7 | 3.5 | 0.00 | 0.00 | 0.00 | 69 | 1006.1 |
| 20260505063802 | 75 | 75 | 2.6 | 4.3 | 0.00 | 0.00 | 0.00 | 69 | 1005.9 |
| 20260505063258 | 75 | 8 | 3.5 | 3.5 | 0.00 | 0.00 | 0.00 | 69 | 1005.9 |
| 20260505062754 | 75 | 44 | 3.5 | 4.3 | 0.00 | 0.00 | 0.00 | 69 | 1005.9 |
| 20260505062252 | 75 | 333 | 1.7 | 3.5 | 0.00 | 0.00 | 0.00 | 68 | 1006.2 |
| 20260505061748 | 75 | 11 | 0.0 | 3.5 | 0.00 | 0.00 | 0.00 | 68 | 1006.2 |
| 20260505061247 | 75 | 356 | 1.7 | 3.5 | 0.00 | 0.00 | 0.00 | 68 | 1006.1 |
| 20260505060744 | 75 | 148 | 2.6 | 2.6 | 0.00 | 0.00 | 0.00 | 68 | 1006.1 |
| 20260505060241 | 76 | 136 | 3.5 | 3.5 | 0.00 | 0.00 | 0.00 | 67 | 1006.1 |
| 20260505055736 | 76 | 18 | 1.7 | 4.3 | 0.00 | 0.00 | 0.00 | 67 | 1006.2 |
| 20260505055232 | 76 | 179 | 1.7 | 3.5 | 0.00 | 0.00 | 0.00 | 67 | 1006.3 |
| 20260505054730 | 76 | 8 | 2.6 | 3.5 | 0.00 | 0.00 | 0.00 | 67 | 1006.2 |
| 20260505054228 | 76 | 73 | 1.7 | 3.5 | 0.00 | 0.00 | 0.00 | 67 | 1006.1 |
| 20260505053726 | 76 | 61 | 1.7 | 4.3 | 0.00 | 0.00 | 0.00 | 66 | 1006.0 |
| 20260505053222 | 76 | 151 | 0.9 | 5.2 | 0.00 | 0.00 | 0.00 | 66 | 1006.1 |
| 20260505052719 | 76 | 13 | 3.5 | 4.3 | 0.00 | 0.00 | 0.00 | 66 | 1006.1 |
| 20260505052216 | 76 | 173 | 2.6 | 4.3 | 0.00 | 0.00 | 0.00 | 66 | 1006.2 |
| 20260505051713 | 76 | 133 | 2.6 | 4.3 | 0.00 | 0.00 | 0.00 | 66 | 1006.1 |
| 20260505051211 | 76 | 157 | 1.7 | 2.6 | 0.00 | 0.00 | 0.00 | 67 | 1006.1 |
| 20260505050709 | 76 | 112 | 0.0 | 2.6 | 0.00 | 0.00 | 0.00 | 67 | 1006.1 |
| 20260505050207 | 76 | 145 | 1.7 | 2.6 | 0.00 | 0.00 | 0.00 | 67 | 1006.2 |
| 20260505041637 | 76 | 340 | 1.7 | 2.6 | 0.00 | 0.00 | 0.00 | 67 | 1006.4 |
| 20260505041134 | 76 | 21 | 0.9 | 3.5 | 0.00 | 0.00 | 0.00 | 67 | 1006.7 |
| 20260505040631 | 76 | 325 | 1.7 | 3.5 | 0.00 | 0.00 | 0.00 | 67 | 1006.4 |
| 20260505040128 | 76 | 127 | 2.6 | 4.3 | 0.00 | 0.00 | 0.00 | 67 | 1006.5 |
| 20260505035624 | 76 | 354 | 1.7 | 3.5 | 0.00 | 0.00 | 0.00 | 67 | 1006.8 |
| 20260505035121 | 76 | 334 | 1.7 | 2.6 | 0.00 | 0.00 | 0.00 | 67 | 1006.7 |
| 20260505034617 | 76 | 77 | 0.0 | 5.2 | 0.00 | 0.00 | 0.00 | 67 | 1006.7 |
| 20260505034114 | 76 | 10 | 1.7 | 4.3 | 0.00 | 0.00 | 0.00 | 67 | 1006.6 |
| 20260505033611 | 76 | 72 | 2.6 | 4.3 | 0.00 | 0.00 | 0.00 | 67 | 1006.5 |
| 20260505033110 | 76 | 343 | 1.7 | 2.6 | 0.00 | 0.00 | 0.00 | 67 | 1006.5 |
| 20260505032607 | 76 | 180 | 0.0 | 2.6 | 0.00 | 0.00 | 0.00 | 66 | 1006.6 |
| 20260505032103 | 76 | 88 | 1.7 | 4.3 | 0.00 | 0.00 | 0.00 | 66 | 1006.4 |
| 20260505031601 | 76 | 153 | 1.7 | 5.2 | 0.00 | 0.00 | 0.00 | 66 | 1006.4 |
| 20260505031057 | 76 | 136 | 0.0 | 4.3 | 0.00 | 0.00 | 0.00 | 66 | 1006.7 |
| 20260505030554 | 76 | 357 | 1.7 | 3.5 | 0.00 | 0.00 | 0.00 | 66 | 1006.6 |
| 20260505030050 | 76 | 64 | 1.7 | 5.2 | 0.00 | 0.00 | 0.00 | 66 | 1006.7 |
| 20260505025545 | 76 | 15 | 0.9 | 2.6 | 0.00 | 0.00 | 0.00 | 66 | 1006.7 |
| 20260505025045 | 77 | 297 | 0.0 | 4.3 | 0.00 | 0.00 | 0.00 | 65 | 1006.7 |
| 20260505024541 | 77 | 104 | 3.5 | 3.5 | 0.00 | 0.00 | 0.00 | 65 | 1006.7 |
| 20260505024038 | 77 | 41 | 1.7 | 2.6 | 0.00 | 0.00 | 0.00 | 65 | 1006.7 |
| 20260505023535 | 77 | 10 | 2.6 | 3.5 | 0.00 | 0.00 | 0.00 | 65 | 1006.6 |
| 20260505023033 | 77 | 122 | 2.6 | 3.5 | 0.00 | 0.00 | 0.00 | 65 | 1006.6 |
| 20260505022531 | 77 | 345 | 0.0 | 3.5 | 0.00 | 0.00 | 0.00 | 65 | 1006.5 |
| 20260505022027 | 77 | 187 | 1.7 | 4.3 | 0.00 | 0.00 | 0.00 | 65 | 1006.8 |
| 20260505021524 | 77 | 212 | 0.9 | 3.5 | 0.00 | 0.00 | 0.00 | 65 | 1006.6 |
| 20260505021021 | 77 | 328 | 1.7 | 3.5 | 0.00 | 0.00 | 0.00 | 65 | 1006.6 |
| 20260505020520 | 77 | 103 | 1.7 | 4.3 | 0.00 | 0.00 | 0.00 | 65 | 1006.5 |
| 20260505020018 | 77 | 21 | 0.9 | 3.5 | 0.00 | 0.00 | 0.00 | 65 | 1006.6 |
| 20260505015515 | 77 | 149 | 2.6 | 4.3 | 0.00 | 0.00 | 0.00 | 65 | 1006.7 |